Regional Weather Roundup
Issued by NWS

Home | Current Version | Previous Version | Text Only | Print | Product List | Glossary On
Versions: 1 2 3 4 5 6 7 8 9 10 11 12 13 14 15 16 17 18 19 20 21 22 23 24 25 26 27 28 29 30 31 32 33 34 35 36 37 38 39 40 41 42 43 44 45 46 47 48 49 50
810
ASUS43 KOAX 040102
RWRNE

WEATHER ROUNDUP FOR NEBRASKA
NATIONAL WEATHER SERVICE OMAHA NE
700 PM CST SAT DEC 03 2016

NOTES: SATELLITE DATA IS BEING USED TO AUGMENT CLOUD COVER ABOVE
       12000 FEET.
       "FAIR" INDICATES FEW OR NO CLOUDS BELOW 12,000 FEET WITH NO
       SIGNIFICANT WEATHER AND/OR OBSTRUCTIONS TO VISIBILITY.

  * THESE STATIONS DO NOT REPORT WEATHER SUCH AS RAIN...SNOW OR FOG.

NEZ001>004-019>022-054>056-040200-
NEBRASKA PANHANDLE

CITY           SKY/WX    TMP DP  RH WIND       PRES   REMARKS
SCOTTSBLUFF    CLOUDY    36  13  38 W13       30.00R WCI  27
ALLIANCE       CLOUDY    37  20  50 NW12      29.96R WCI  29
CHADRON        CLOUDY    30  15  53 SW6       29.96R WCI  24
KIMBALL        CLOUDY    33  17  51 NW17G24   29.99R WCI  22
SIDNEY         CLOUDY    33  15  47 NW14      29.99R WCI  23
$$

NEZ057>060-069>072-079>082-040200-
SOUTHWEST NEBRASKA

CITY           SKY/WX    TMP DP  RH WIND       PRES   REMARKS
NORTH PLATTE   PTCLDY    36  30  79 S10       29.99R WCI  28
IMPERIAL       PTCLDY    36  26  67 SW3       29.98R
LEXINGTON      CLOUDY    33  31  93 S9        30.02F WCI  25
MCCOOK         CLOUDY    35  32  88 S8        30.01S WCI  29
OGALLALA       MOCLDY    31  14  49 NW7       29.97S WCI  24
$$

NEZ005>010-023>029-035>040-094-040200-
NORTH CENTRAL NEBRASKA

CITY           SKY/WX    TMP DP  RH WIND       PRES   REMARKS
VALENTINE      CLEAR     26  17  68 SW7       29.94R WCI  18
AINSWORTH      PTCLDY    33  18  54 W6        29.95R WCI  27
BROKEN BOW     CLOUDY    35  31  85 S10       30.00S WCI  27
O`NEILL        CLOUDY    36  32  87 S16G22    29.99R WCI  26
ORD            MOCLDY    33  29  85 S10       30.02R WCI  25
$$

NEZ041-046>049-061>064-073>077-083>087-040200-
SOUTH CENTRAL NEBRASKA

CITY           SKY/WX    TMP DP  RH WIND       PRES   REMARKS
GRAND ISLAND   CLOUDY    32  32 100 S7        30.07F WCI  26
AURORA         CLOUDY    32  32 100 SE7       30.06F FOG     WCI  26
HASTINGS       CLOUDY    32  31  96 SE7       30.07S FOG     WCI  26
HEBRON         LGT SNOW  32  32 100 CALM      30.09S
HOLDREGE       CLOUDY    32  31  98 S7        30.04R WCI  26
KEARNEY *      CLOUDY    32  28  86 S6        30.05S WCI  26
YORK           CLOUDY    32  32 100 CALM      30.09R FOG
$$

NEZ011>018-030>034-042>045-040200-
NORTHEAST NEBRASKA

CITY           SKY/WX    TMP DP  RH WIND       PRES   REMARKS
NORFOLK        CLOUDY    33  31  92 S9        30.07F WCI  25
ALBION         CLOUDY    33  32  96 S9        30.06F WCI  25
BLAIR          LGT SNOW  33  33  98 E5        30.11F VSB 1   WCI  29
FREMONT        LGT SNOW  32  32 100 SE8       30.12S WCI  25
TEKAMAH        LGT SNOW  32  31  96 SE9       30.13F FOG     WCI  24
WAYNE          CLOUDY    33  32  98 S10       30.08F WCI  25
$$

NEZ050>053-065>068-078-088>093-040200-
SOUTHEAST NEBRASKA

CITY           SKY/WX    TMP DP  RH WIND       PRES   REMARKS
LINCOLN        LGT SNOW  33  32  96 E5        30.12F VSB 1   WCI  29
OMAHA EPPLEY   LGT SNOW  33  30  88 SE6       30.14F FOG     WCI  28
BEATRICE       LGT SNOW  33  33  99 SE7       30.09F WCI  27
FALLS CITY     LGT RAIN  38  36  92 E5        30.12F WCI  34
NEBRASKA CITY  LGT RAIN  32  32  99 NE3       30.12F
PLATTSMOUTH    LGT SNOW  33  31  94 E8        30.11F WCI  26
$$

NEZ044-045-051>053-067-040200-
OMAHA AREA

CITY           SKY/WX    TMP DP  RH WIND       PRES   REMARKS
OMAHA EPPLEY   LGT SNOW  33  30  88 SE6       30.14F FOG     WCI  28
BLAIR          LGT SNOW  33  33  98 E5        30.11F VSB 1   WCI  29
FREMONT        LGT SNOW  32  32 100 SE8       30.12S WCI  25
MILLARD        LGT SNOW  33  32  95 CALM      30.13F
OFFUTT AFB     LGT SNOW  33  33 100 E6        30.13F FOG     WCI  28
PLATTSMOUTH    LGT SNOW  33  31  94 E8        30.11F WCI  26
WAHOO          LGT SNOW  32  32  99 SE8       30.12S WCI  25
$$




USA.gov is the U.S. government's official web portal to all federal, state and local government web resources and services.